GW4718 Weather Reports


time (UTC)temp
C
wind
direction
speed
KPH
gust
KPH
rain 1hr
cm
rain 24hr
cm
rain mn
cm
humidity
%
barometer
mb
20260505060605 8 99 0.0 0.0 0.00 0.00 0.00 90 1014.5
20260505055556 8 72 0.0 0.0 0.00 0.00 0.00 91 1014.5
20260505055053 8 63 0.0 1.6 0.00 0.00 0.00 91 1014.7
20260505054550 8 119 0.0 0.0 0.00 0.00 0.00 89 1014.5
20260505054049 8 131 0.0 0.0 0.00 0.00 0.00 89 1014.7
20260505053545 8 50 0.0 0.0 0.00 0.00 0.00 88 1014.5
20260505053042 9 99 0.0 0.0 0.00 0.00 0.00 87 1014.5
20260505052539 9 187 3.2 4.8 0.00 0.00 0.00 86 1014.6
20260505052037 9 152 4.8 4.8 0.00 0.00 0.00 87 1014.6
20260505051533 9 146 1.6 4.8 0.00 0.00 0.00 87 1014.6
20260505051032 9 97 0.0 0.0 0.00 0.00 0.00 87 1014.6
20260505050529 9 301 1.6 3.2 0.00 0.00 0.00 86 1014.4
20260505041457 9 200 0.0 0.0 0.00 0.00 0.00 87 1014.3
20260505040954 9 133 0.0 1.6 0.00 0.00 0.00 87 1014.2
20260505040452 10 259 0.0 0.0 0.00 0.00 0.00 86 1014.2
20260505035948 10 160 0.0 1.6 0.00 0.00 0.00 84 1014.3
20260505035444 10 192 3.2 6.4 0.00 0.00 0.00 83 1014.3
20260505034942 9 109 1.6 3.2 0.00 0.00 0.00 86 1014.3
20260505034438 9 226 0.0 0.0 0.00 0.00 0.00 87 1014.3
20260505033935 9 163 0.0 0.0 0.00 0.00 0.00 87 1014.4
20260505033432 9 229 0.0 0.0 0.00 0.00 0.00 86 1014.4
20260505032930 10 192 0.0 0.0 0.00 0.00 0.00 86 1014.3
20260505032427 10 210 0.0 1.6 0.00 0.00 0.00 86 1014.4
20260505031923 10 135 0.0 1.6 0.00 0.00 0.00 85 1014.4
20260505031421 10 149 0.0 1.6 0.00 0.00 0.00 85 1014.4
20260505030918 10 188 0.0 3.2 0.00 0.00 0.00 85 1014.5
20260505030413 10 160 1.6 1.6 0.00 0.00 0.00 85 1014.3
20260505025909 10 144 0.0 3.2 0.00 0.00 0.00 84 1014.5
20260505025407 10 296 0.0 1.6 0.00 0.00 0.00 86 1014.4
20260505024905 10 143 0.0 0.0 0.00 0.00 0.00 86 1014.5
20260505024403 10 150 0.0 1.6 0.00 0.00 0.00 85 1014.6
20260505023859 10 178 0.0 0.0 0.00 0.00 0.00 85 1014.6
20260505023356 10 179 0.0 0.0 0.00 0.00 0.00 86 1014.4
20260505022853 10 176 0.0 1.6 0.00 0.00 0.00 85 1014.6
20260505022350 10 146 0.0 0.0 0.00 0.00 0.00 85 1014.7
20260505021848 10 153 1.6 1.6 0.00 0.00 0.00 85 1014.7
20260505021344 10 125 0.0 0.0 0.00 0.00 0.00 85 1014.6
20260505020840 10 120 0.0 0.0 0.00 0.00 0.00 85 1014.7
20260505020336 11 141 0.0 3.2 0.00 0.00 0.00 83 1014.6
20260505015833 11 99 0.0 1.6 0.00 0.00 0.00 83 1014.7
20260505015330 11 338 0.0 1.6 0.00 0.00 0.00 83 1014.7
20260505014827 11 71 3.2 3.2 0.00 0.00 0.00 82 1014.6
20260505014324 11 237 0.0 0.0 0.00 0.00 0.00 84 1014.5
20260505013820 11 174 0.0 1.6 0.00 0.00 0.00 84 1014.5
20260505013318 11 167 0.0 0.0 0.00 0.00 0.00 82 1014.4
20260505012816 11 168 0.0 1.6 0.00 0.00 0.00 82 1014.2
20260505012314 11 194 0.0 0.0 0.00 0.00 0.00 82 1014.1
20260505011809 11 162 0.0 0.0 0.00 0.00 0.00 81 1014.1
20260505011307 12 141 0.0 0.0 0.00 0.00 0.00 80 1014.3
20260505010802 12 229 1.6 3.2 0.00 0.00 0.00 79 1014.3
20260505010258 12 129 0.0 1.6 0.00 0.00 0.00 76 1014.1
20260505005754 13 192 0.0 0.0 0.00 0.00 0.00 77 1013.9
20260505005252 13 147 1.6 1.6 0.00 0.00 0.00 75 1013.7
20260505004749 13 116 1.6 1.6 0.00 0.00 0.00 74 1013.9
20260505004245 13 108 0.0 0.0 0.00 0.00 0.00 75 1014.0
20260505003743 13 155 1.6 1.6 0.00 0.00 0.00 76 1014.1
20260505003240 14 174 1.6 3.2 0.00 0.00 0.00 72 1014.1
20260505002736 14 97 0.0 3.2 0.00 0.00 0.00 70 1013.8
20260505002234 15 250 3.2 6.4 0.00 0.00 0.00 71 1013.7
20260505001731 16 271 3.2 6.4 0.00 0.00 0.00 69 1013.9
20260505001229 17 273 4.8 6.4 0.00 0.00 0.00 58 1013.5
20260505000725 17 248 4.8 11.3 0.00 0.00 0.00 57 1013.6
20260505000226 17 260 6.4 9.7 0.00 0.00 0.00 56 1013.7
20260504235720 17 247 3.2 9.7 0.00 0.00 0.00 58 1013.6
20260504235216 17 168 6.4 6.4 0.00 0.00 0.00 60 1013.7
20260504234713 17 238 6.4 9.7 0.00 0.00 0.00 59 1013.5
20260504234210 17 257 4.8 12.9 0.00 0.00 0.00 59 1013.4
20260504233706 17 253 6.4 6.4 0.00 0.00 0.00 56 1013.3
20260504233202 18 248 6.4 6.4 0.00 0.00 0.00 56 1013.4
20260504232700 18 163 6.4 9.7 0.00 0.00 0.00 53 1013.2
20260504232156 18 215 8.0 16.1 0.00 0.00 0.00 52 1013.2
20260504231653 19 256 6.4 11.3 0.00 0.00 0.00 50 1012.9
20260504231150 19 8 1.6 6.4 0.00 0.00 0.00 49 1013.0
20260504230646 19 189 0.0 1.6 0.00 0.00 0.00 49 1013.0
20260504230145 18 270 3.2 9.7 0.00 0.00 0.00 52 1013.4
20260504225643 18 189 4.8 12.9 0.00 0.00 0.00 49 1013.6
20260504225138 18 249 6.4 16.1 0.00 0.00 0.00 50 1013.3
20260504224636 19 270 3.2 9.7 0.00 0.00 0.00 53 1013.4
20260504224132 20 165 3.2 11.3 0.00 0.00 0.00 49 1013.4
20260504223630 20 248 4.8 9.7 0.00 0.00 0.00 47 1013.0
20260504223125 20 171 4.8 11.3 0.00 0.00 0.00 48 1012.9
20260504222623 20 207 3.2 9.7 0.00 0.00 0.00 49 1013.2
20260504222120 20 171 4.8 14.5 0.00 0.00 0.00 48 1013.3
20260504221617 20 216 4.8 11.3 0.00 0.00 0.00 48 1013.4
20260504221114 20 246 3.2 6.4 0.00 0.00 0.00 50 1013.2
20260504220610 20 184 9.7 14.5 0.00 0.00 0.00 47 1013.2
20260504220108 20 212 6.4 9.7 0.00 0.00 0.00 48 1013.3
20260504215603 20 152 3.2 6.4 0.00 0.00 0.00 48 1013.3
20260504215101 19 249 0.0 4.8 0.00 0.00 0.00 48 1013.3
20260504214557 19 223 3.2 6.4 0.00 0.00 0.00 48 1013.6
20260504214053 19 240 3.2 11.3 0.00 0.00 0.00 52 1013.4
20260504213550 19 252 4.8 11.3 0.00 0.00 0.00 49 1013.5
20260504213047 19 96 8.0 14.5 0.00 0.00 0.00 55 1013.5
20260504212543 20 284 6.4 9.7 0.00 0.00 0.00 49 1013.4
20260504212040 20 184 6.4 14.5 0.00 0.00 0.00 42 1013.2
20260504211537 20 266 9.7 14.5 0.00 0.00 0.00 42 1013.2
20260504211034 20 242 3.2 9.7 0.00 0.00 0.00 45 1013.0
20260504210531 20 196 4.8 12.9 0.00 0.00 0.00 44 1012.8
20260504210028 20 202 4.8 22.5 0.00 0.00 0.00 47 1012.9
20260504205526 20 246 3.2 12.9 0.00 0.00 0.00 48 1012.7
20260504205023 20 215 4.8 9.7 0.00 0.00 0.00 51 1012.6
20260504204521 20 245 3.2 17.7 0.00 0.00 0.00 43 1012.7
20260504204020 21 359 11.3 17.7 0.00 0.00 0.00 42 1012.7
20260504203518 20 253 4.8 9.7 0.00 0.00 0.00 42 1012.6
20260504203015 20 234 9.7 14.5 0.00 0.00 0.00 43 1012.5
20260504202510 21 231 6.4 16.1 0.00 0.00 0.00 43 1012.4
20260504202007 21 204 8.0 11.3 0.00 0.00 0.00 41 1012.4
20260504201504 21 223 12.9 14.5 0.00 0.00 0.00 43 1012.4
20260504201002 22 211 4.8 12.9 0.00 0.00 0.00 43 1012.4
20260504200458 21 141 1.6 12.9 0.00 0.00 0.00 41 1012.4
20260504195955 21 155 11.3 16.1 0.00 0.00 0.00 42 1012.5
20260504195451 20 96 1.6 16.1 0.00 0.00 0.00 43 1012.7
20260504194948 20 189 1.6 6.4 0.00 0.00 0.00 45 1012.8
20260504194444 21 257 4.8 9.7 0.00 0.00 0.00 43 1012.7
20260504193940 22 197 9.7 14.5 0.00 0.00 0.00 40 1012.7
20260504193437 21 177 6.4 17.7 0.00 0.00 0.00 42 1012.9
20260504192936 21 114 12.9 22.5 0.00 0.00 0.00 43 1013.0
20260504192432 21 245 11.3 16.1 0.00 0.00 0.00 40 1013.0
20260504191932 21 233 6.4 24.1 0.00 0.00 0.00 42 1013.5
20260504191429 20 222 11.3 16.1 0.00 0.00 0.00 45 1013.5
20260504190924 20 231 14.5 20.9 0.00 0.00 0.00 43 1013.6
20260504190420 20 175 14.5 22.5 0.00 0.00 0.00 45 1013.7
20260504185917 20 265 9.7 16.1 0.00 0.00 0.00 44 1013.5
20260504185415 21 273 4.8 17.7 0.00 0.00 0.00 47 1013.6
20260504184910 20 150 6.4 16.1 0.00 0.00 0.00 46 1013.7
20260504184406 19 175 8.0 12.9 0.00 0.00 0.00 49 1013.8
20260504183902 20 248 6.4 12.9 0.00 0.00 0.00 48 1013.8
20260504183400 19 147 8.0 17.7 0.00 0.00 0.00 46 1013.8
20260504182857 20 224 8.0 16.1 0.00 0.00 0.00 48 1013.8
20260504182354 20 272 4.8 14.5 0.00 0.00 0.00 49 1014.1
20260504181851 20 118 6.4 22.5 0.00 0.00 0.00 46 1014.0
20260504181348 20 267 4.8 17.7 0.00 0.00 0.00 45 1014.0
20260504180847 19 282 6.4 12.9 0.00 0.00 0.00 47 1014.0
20260504180345 20 173 9.7 16.1 0.00 0.00 0.00 47 1014.1
20260504175843 20 166 9.7 17.7 0.00 0.00 0.00 45 1014.3
20260504175339 18 193 6.4 14.5 0.00 0.00 0.00 47 1014.4
20260504174838 18 184 8.0 12.9 0.00 0.00 0.00 49 1014.5
20260504174335 18 191 11.3 20.9 0.00 0.00 0.00 47 1014.6
20260504173832 19 301 11.3 14.5 0.00 0.00 0.00 44 1014.4
20260504173329 19 210 8.0 11.3 0.00 0.00 0.00 46 1014.4
20260504172826 18 302 6.4 11.3 0.00 0.00 0.00 46 1014.8
20260504172322 18 250 12.9 16.1 0.00 0.00 0.00 45 1014.6
20260504171818 18 207 4.8 12.9 0.00 0.00 0.00 48 1014.8
20260504171315 17 239 4.8 17.7 0.00 0.00 0.00 45 1014.6
20260504170813 18 179 8.0 14.5 0.00 0.00 0.00 46 1014.8
20260504170309 18 234 4.8 9.7 0.00 0.00 0.00 45 1015.0
20260504160228 18 196 16.1 20.9 0.00 0.00 0.00 45 1015.6
20260504150653 17 255 6.4 16.1 0.00 0.00 0.00 48 1015.9
20260504150150 16 204 8.0 12.9 0.00 0.00 0.00 46 1015.9
20260504141119 16 259 3.2 14.5 0.00 0.00 0.00 45 1016.2
20260504140615 16 237 9.7 11.3 0.00 0.00 0.00 45 1016.0
20260504140111 16 258 6.4 12.9 0.00 0.00 0.00 46 1016.1
20260504130539 13 288 3.2 9.7 0.00 0.00 0.00 53 1016.4
20260504110427 4 98 0.0 0.0 0.00 0.00 0.00 85 1017.3
20260504100349 4 219 0.0 0.0 0.00 0.00 0.00 81 1017.4
20260504081742 4 66 1.6 1.6 0.00 0.00 0.00 79 1017.7
20260504081238 4 35 0.0 1.6 0.00 0.00 0.00 79 1017.6
20260504080735 3 75 0.0 0.0 0.00 0.00 0.00 78 1017.6
20260504080231 4 75 0.0 0.0 0.00 0.00 0.00 77 1017.7
20260504070159 3 94 0.0 0.0 0.00 0.00 0.00 81 1017.9